QPF
0.09 0.11 0.11 0.10 0.10 0.11 0.13 0.16 0.18 0.17 0.17 0.17 0.15 0.12 0.11 0.12 0.12 0.10 0.08 0.08 0.07 0.06 0.04 0.03 0.02 0.03 0.03 0.03 0.03 0.04 0.04 0.05 0.07 0.08 0.10 0.14 0.16 0.16
0.08 0.09 0.09 0.08 0.08 0.09 0.14 0.17 0.20 0.21 0.20 0.19 0.19 0.18 0.15 0.10 0.09 0.09 0.08 0.07 0.06 0.05 0.05 0.05 0.05 0.04 0.03 0.03 0.03 0.03 0.04 0.04 0.05 0.06 0.08 0.09 0.10 0.10
0.08 0.07 0.07 0.07 0.07 0.07 0.10 0.13 0.17 0.21 0.21 0.19 0.20 0.20 0.17 0.10 0.09 0.08 0.08 0.08 0.07 0.07 0.06 0.06 0.05 0.04 0.03 0.03 0.03 0.03 0.03 0.04 0.06 0.07 0.08 0.08 0.08 0.08
0.08 0.09 0.08 0.07 0.08 0.08 0.10 0.14 0.16 0.17 0.17 0.17 0.19 0.19 0.15 0.11 0.10 0.09 0.09 0.08 0.07 0.07 0.07 0.07 0.06 0.06 0.05 0.04 0.04 0.04 0.04 0.04 0.05 0.06 0.05 0.05 0.06 0.07
0.09 0.09 0.08 0.09 0.07 0.07 0.07 0.08 0.09 0.11 0.13 0.13 0.14 0.12 0.10 0.11 0.13 0.14 0.11 0.08 0.07 0.09 0.08 0.08 0.07 0.06 0.05 0.05 0.05 0.05 0.05 0.06 0.07 0.07 0.06 0.06 0.07 0.08
0.08 0.07 0.08 0.08 0.07 0.06 0.06 0.06 0.09 0.11 0.12 0.13 0.12 0.11 0.12 0.14 0.15 0.14 0.11 0.10 0.09 0.07 0.05 0.03 0.03 0.03 0.04 0.04 0.05 0.05 0.05 0.05 0.06 0.06 0.06 0.05 0.06 0.08
0.05 0.04 0.04 0.04 0.04 0.04 0.05 0.06 0.08 0.11 0.14 0.15 0.16 0.16 0.16 0.17 0.16 0.13 0.10 0.09 0.07 0.05 0.03 0.03 0.03 0.04 0.04 0.04 0.04 0.04 0.04 0.04 0.04 0.04 0.04 0.04 0.04 0.06
0.04 0.04 0.03 0.03 0.03 0.03 0.04 0.05 0.05 0.06 0.08 0.12 0.16 0.15 0.14 0.14 0.12 0.08 0.07 0.06 0.06 0.05 0.04 0.04 0.04 0.04 0.04 0.04 0.04 0.03 0.03 0.03 0.03 0.03 0.04 0.04 0.04 0.04
0.03 0.03 0.03 0.03 0.03 0.02 0.02 0.02 0.02 0.03 0.05 0.07 0.08 0.08 0.08 0.09 0.08 0.07 0.05 0.04 0.04 0.04 0.03 0.03 0.02 0.02 0.03 0.04 0.04 0.03 0.02 0.02 0.02 0.02 0.02 0.02 0.02 0.02
0.02 0.02 0.02 0.02 0.01 0.01 0.02 0.02 0.02 0.01 0.02 0.03 0.05 0.07 0.07 0.05 0.04 0.04 0.03 0.03 0.03 0.03 0.02 0.02 0.02 0.01 0.01 0.02 0.03 0.03 0.02 0.02 0.01 0.01 0.01 0.01 0.01 0.01
0.01 0.01 0.01 0.01 0.01 0.01 0.01 0.02 0.02 0.01 0.02 0.02 0.02 0.03 0.05 0.03 0.01 0.02 0.02 0.03 0.04 0.03 0.02 0.01 0.01 0.01 0.01 0.01 0.01 0.01 0.01 0.01 0.00 0.00 0.00 0.00 0.00 0.01
0.01 0.01 0.01 0.01 0.01 0.01 0.01 0.02 0.01 0.01 0.01 0.01 0.01 0.01 0.02 0.02 0.02 0.02 0.02 0.02 0.02 0.02 0.01 0.01 0.02 0.02 0.03 0.03 0.01 0.01 0.01 0.00 0.00 0.00 0.01 0.01 0.01 0.01
0.01 0.01 0.01 0.01 0.01 0.01 0.01 0.01 0.01 0.00 0.01 0.01 0.01 0.02 0.02 0.02 0.02 0.01 0.01 0.01 0.01 0.01 0.01 0.01 0.02 0.03 0.03 0.03 0.02 0.01 0.01 0.01 0.01 0.01 0.00 0.00 0.01 0.01
0.01 0.01 0.01 0.00 0.00 0.00 0.00 0.01 0.01 0.01 0.01 0.01 0.02 0.02 0.01 0.01 0.01 0.01 0.01 0.01 0.02 0.02 0.02 0.02 0.03 0.03 0.03 0.02 0.02 0.02 0.02 0.01 0.01 0.01 0.01 0.01 0.01 0.01
0.03 0.02 0.02 0.01 0.01 0.00 0.00 0.00 0.00 0.00 0.00 0.01 0.01 0.01 0.01 0.01 0.01 0.01 0.01 0.01 0.01 0.01 0.01 0.01 0.02 0.02 0.02 0.02 0.02 0.02 0.02 0.02 0.02 0.02 0.03 0.03 0.02 0.02
0.02 0.02 0.02 0.01 0.01 0.00 0.00 0.00 0.00 0.00 0.00 0.00 0.01 0.01 0.01 0.01 0.01 0.01 0.01 0.01 0.02 0.01 0.01 0.00 0.01 0.02 0.02 0.02 0.01 0.01 0.01 0.01 0.01 0.02 0.02 0.03 0.04 0.03
0.01 0.01 0.01 0.01 0.01 0.00 0.00 0.00 0.00 0.00 0.00 0.00 0.01 0.01 0.01 0.00 0.00 0.00 0.00 0.01 0.01 0.01 0.01 0.01 0.01 0.01 0.01 0.01 0.01 0.01 0.01 0.01 0.01 0.02 0.02 0.03 0.04 0.03
0.01 0.01 0.01 0.01 0.01 0.00 0.00 0.00 0.00 0.00 0.00 0.00 0.00 0.00 0.00 0.00 0.00 0.00 0.00 0.00 0.01 0.01 0.00 0.00 0.01 0.01 0.01 0.01 0.01 0.01 0.01 0.01 0.01 0.02 0.02 0.03 0.03 0.02
0.01 0.01 0.01 0.01 0.01 0.01 0.01 0.01 0.00 0.00 0.00 0.00 0.00 0.00 0.00 0.00 0.00 0.00 0.00 0.00 0.01 0.01 0.00 0.00 0.00 0.01 0.01 0.02 0.02 0.01 0.01 0.01 0.01 0.02 0.01 0.02 0.02 0.01
0.01 0.01 0.01 0.01 0.01 0.01 0.01 0.01 0.01 0.00 0.00 0.00 0.00 0.00 0.00 0.00 0.00 0.00 0.01 0.00 0.01 0.01 0.01 0.00 0.00 0.00 0.01 0.02 0.02 0.01 0.01 0.01 0.01 0.01 0.01 0.01 0.01 0.01
0.01 0.01 0.01 0.01 0.01 0.01 0.01 0.01 0.00 0.00 0.00 0.00 0.00 0.00 0.00 0.00 0.00 0.00 0.00 0.00 0.00 0.00 0.00 0.00 0.00 0.00 0.00 0.01 0.02 0.02 0.01 0.00 0.00 0.01 0.01 0.01 0.01 0.02
0.00 0.00 0.00 0.00 0.00 0.00 0.01 0.01 0.01 0.01 0.01 0.01 0.01 0.01 0.00 0.00 0.00 0.00 0.00 0.00 0.00 0.00 0.00 0.00 0.00 0.00 0.00 0.01 0.02 0.01 0.01 0.01 0.01 0.01 0.00 0.00 0.00 0.01
0.00 0.00 0.00 0.00 0.00 0.00 0.00 0.01 0.01 0.01 0.01 0.01 0.01 0.01 0.01 0.00 0.00 0.00 0.01 0.00 0.01 0.00 0.00 0.00 0.00 0.00 0.01 0.01 0.01 0.01 0.01 0.01 0.01 0.01 0.01 0.01 0.00 0.00
MSLP
1014.71 1014.91 1015.15 1015.40 1015.63 1015.80 1015.90 1015.92 1015.91 1015.88 1015.88 1015.94 1016.09 1016.34 1016.65 1017.01 1017.37 1017.67 1017.87 1017.94 1017.86 1017.64 1017.27 1016.80 1016.26 1015.68 1015.10 1014.56 1014.08 1013.70 1013.44 1013.32 1013.34 1013.53 1013.87 1014.37 1014.99 1015.70
1014.92 1015.00 1015.12 1015.24 1015.36 1015.45 1015.51 1015.56 1015.61 1015.70 1015.86 1016.10 1016.43 1016.83 1017.28 1017.73 1018.13 1018.43 1018.61 1018.63 1018.48 1018.18 1017.75 1017.23 1016.64 1016.03 1015.42 1014.85 1014.36 1013.94 1013.65 1013.48 1013.46 1013.59 1013.90 1014.36 1014.96 1015.67
1015.30 1015.28 1015.28 1015.27 1015.27 1015.26 1015.26 1015.30 1015.40 1015.58 1015.86 1016.24 1016.72 1017.25 1017.81 1018.33 1018.77 1019.09 1019.25 1019.24 1019.06 1018.74 1018.30 1017.79 1017.22 1016.65 1016.09 1015.56 1015.10 1014.70 1014.40 1014.21 1014.15 1014.23 1014.47 1014.88 1015.42 1016.09
1015.79 1015.71 1015.61 1015.50 1015.38 1015.28 1015.22 1015.23 1015.34 1015.57 1015.92 1016.40 1016.97 1017.59 1018.21 1018.78 1019.24 1019.56 1019.72 1019.72 1019.55 1019.26 1018.88 1018.44 1017.97 1017.50 1017.05 1016.63 1016.24 1015.91 1015.64 1015.45 1015.36 1015.40 1015.57 1015.89 1016.34 1016.92
1016.32 1016.20 1016.05 1015.87 1015.67 1015.50 1015.38 1015.36 1015.45 1015.68 1016.06 1016.56 1017.16 1017.81 1018.45 1019.03 1019.49 1019.82 1020.00 1020.02 1019.91 1019.70 1019.43 1019.13 1018.82 1018.51 1018.22 1017.94 1017.68 1017.44 1017.23 1017.07 1016.97 1016.95 1017.05 1017.28 1017.64 1018.11
1016.80 1016.69 1016.53 1016.32 1016.09 1015.87 1015.70 1015.64 1015.69 1015.90 1016.25 1016.72 1017.30 1017.91 1018.52 1019.07 1019.52 1019.85 1020.05 1020.12 1020.11 1020.02 1019.90 1019.78 1019.66 1019.55 1019.45 1019.35 1019.23 1019.11 1018.98 1018.85 1018.76 1018.72 1018.76 1018.91 1019.16 1019.51
1017.18 1017.11 1016.96 1016.76 1016.53 1016.30 1016.11 1016.01 1016.02 1016.17 1016.46 1016.86 1017.36 1017.90 1018.43 1018.92 1019.34 1019.66 1019.89 1020.03 1020.12 1020.18 1020.24 1020.31 1020.40 1020.49 1020.59 1020.66 1020.70 1020.70 1020.66 1020.59 1020.51 1020.47 1020.47 1020.56 1020.73 1020.99
1017.42 1017.39 1017.29 1017.13 1016.93 1016.71 1016.52 1016.40 1016.37 1016.46 1016.66 1016.97 1017.35 1017.79 1018.22 1018.64 1019.00 1019.30 1019.56 1019.77 1019.97 1020.17 1020.40 1020.66 1020.94 1021.23 1021.50 1021.74 1021.91 1022.02 1022.07 1022.06 1022.02 1021.99 1021.99 1022.04 1022.16 1022.35
1017.51 1017.53 1017.48 1017.38 1017.23 1017.05 1016.89 1016.76 1016.70 1016.72 1016.84 1017.04 1017.31 1017.63 1017.95 1018.28 1018.58 1018.86 1019.13 1019.40 1019.70 1020.02 1020.39 1020.80 1021.24 1021.68 1022.09 1022.45 1022.74 1022.94 1023.06 1023.11 1023.13 1023.13 1023.14 1023.20 1023.30 1023.46
1017.46 1017.52 1017.54 1017.50 1017.41 1017.29 1017.16 1017.05 1016.97 1016.95 1017.00 1017.11 1017.27 1017.47 1017.69 1017.93 1018.17 1018.43 1018.70 1019.00 1019.36 1019.77 1020.24 1020.75 1021.29 1021.82 1022.32 1022.76 1023.12 1023.38 1023.57 1023.68 1023.74 1023.79 1023.84 1023.92 1024.04 1024.21
1017.31 1017.41 1017.48 1017.50 1017.48 1017.42 1017.33 1017.25 1017.17 1017.13 1017.13 1017.17 1017.26 1017.37 1017.51 1017.67 1017.86 1018.08 1018.33 1018.65 1019.03 1019.48 1019.98 1020.54 1021.12 1021.69 1022.22 1022.69 1023.08 1023.38 1023.60 1023.76 1023.87 1023.97 1024.08 1024.20 1024.36 1024.55
1017.11 1017.24 1017.35 1017.42 1017.45 1017.44 1017.40 1017.35 1017.30 1017.26 1017.24 1017.25 1017.28 1017.34 1017.42 1017.53 1017.67 1017.85 1018.08 1018.38 1018.74 1019.18 1019.68 1020.22 1020.79 1021.34 1021.86 1022.32 1022.71 1023.02 1023.27 1023.46 1023.61 1023.76 1023.92 1024.09 1024.30 1024.52
1016.88 1017.03 1017.17 1017.27 1017.34 1017.37 1017.37 1017.35 1017.32 1017.30 1017.29 1017.30 1017.32 1017.36 1017.41 1017.49 1017.60 1017.75 1017.94 1018.20 1018.52 1018.91 1019.36 1019.85 1020.35 1020.85 1021.33 1021.75 1022.11 1022.42 1022.67 1022.89 1023.08 1023.27 1023.47 1023.70 1023.94 1024.20
1016.65 1016.81 1016.96 1017.07 1017.15 1017.19 1017.21 1017.22 1017.22 1017.23 1017.24 1017.27 1017.31 1017.36 1017.42 1017.50 1017.59 1017.72 1017.88 1018.08 1018.35 1018.67 1019.04 1019.44 1019.87 1020.29 1020.70 1021.07 1021.40 1021.70 1021.95 1022.18 1022.40 1022.63 1022.87 1023.12 1023.39 1023.68
1016.41 1016.57 1016.70 1016.79 1016.85 1016.88 1016.90 1016.92 1016.94 1016.98 1017.04 1017.11 1017.19 1017.28 1017.38 1017.47 1017.57 1017.68 1017.81 1017.98 1018.18 1018.42 1018.70 1019.02 1019.36 1019.70 1020.04 1020.37 1020.67 1020.95 1021.21 1021.45 1021.70 1021.95 1022.21 1022.49 1022.78 1023.07
1016.13 1016.27 1016.36 1016.41 1016.43 1016.42 1016.42 1016.43 1016.46 1016.53 1016.63 1016.76 1016.90 1017.05 1017.19 1017.33 1017.45 1017.57 1017.69 1017.82 1017.97 1018.14 1018.35 1018.59 1018.85 1019.12 1019.41 1019.69 1019.97 1020.25 1020.51 1020.78 1021.04 1021.31 1021.59 1021.87 1022.16 1022.45
1015.78 1015.88 1015.91 1015.90 1015.85 1015.79 1015.75 1015.74 1015.78 1015.86 1016.00 1016.18 1016.39 1016.60 1016.81 1017.01 1017.18 1017.32 1017.44 1017.56 1017.68 1017.81 1017.96 1018.14 1018.34 1018.57 1018.82 1019.08 1019.35 1019.62 1019.90 1020.18 1020.46 1020.75 1021.03 1021.31 1021.60 1021.87
1015.30 1015.35 1015.32 1015.23 1015.12 1015.00 1014.91 1014.88 1014.91 1015.01 1015.18 1015.41 1015.68 1015.97 1016.25 1016.50 1016.73 1016.91 1017.06 1017.19 1017.30 1017.41 1017.54 1017.68 1017.85 1018.05 1018.28 1018.53 1018.80 1019.08 1019.36 1019.66 1019.95 1020.24 1020.53 1020.81 1021.08 1021.34
1014.67 1014.66 1014.57 1014.43 1014.26 1014.09 1013.97 1013.91 1013.93 1014.05 1014.25 1014.53 1014.85 1015.20 1015.54 1015.86 1016.14 1016.37 1016.56 1016.72 1016.84 1016.96 1017.08 1017.22 1017.38 1017.57 1017.79 1018.04 1018.31 1018.59 1018.89 1019.18 1019.48 1019.77 1020.05 1020.32 1020.58 1020.83
1013.85 1013.81 1013.68 1013.51 1013.31 1013.13 1012.99 1012.93 1012.96 1013.09 1013.32 1013.62 1013.98 1014.37 1014.77 1015.14 1015.47 1015.75 1015.98 1016.17 1016.33 1016.47 1016.61 1016.76 1016.93 1017.13 1017.35 1017.60 1017.86 1018.14 1018.43 1018.73 1019.01 1019.29 1019.56 1019.82 1020.06 1020.30
1012.86 1012.81 1012.70 1012.54 1012.36 1012.19 1012.08 1012.04 1012.09 1012.24 1012.48 1012.81 1013.19 1013.60 1014.02 1014.42 1014.78 1015.10 1015.37 1015.61 1015.80 1015.98 1016.15 1016.32 1016.51 1016.72 1016.94 1017.19 1017.44 1017.71 1017.98 1018.25 1018.52 1018.78 1019.02 1019.26 1019.49 1019.72
1011.75 1011.74 1011.68 1011.58 1011.47 1011.37 1011.32 1011.33 1011.42 1011.59 1011.85 1012.17 1012.55 1012.96 1013.37 1013.77 1014.15 1014.48 1014.78 1015.04 1015.27 1015.49 1015.69 1015.90 1016.11 1016.33 1016.55 1016.79 1017.04 1017.28 1017.52 1017.76 1017.99 1018.22 1018.43 1018.65 1018.86 1019.07
1010.59 1010.66 1010.70 1010.72 1010.73 1010.74 1010.78 1010.86 1011.00 1011.20 1011.46 1011.77 1012.12 1012.49 1012.87 1013.24 1013.59 1013.92 1014.22 1014.50 1014.76 1015.01 1015.24 1015.48 1015.71 1015.94 1016.18 1016.41 1016.63 1016.84 1017.05 1017.25 1017.44 1017.62 1017.80 1017.99 1018.18 1018.38
Thickness
5749 5748 5747 5747 5746 5745 5743 5738 5729 5721 5719 5720 5721 5721 5719 5716 5713 5711 5709 5706 5705 5703 5702 5700 5699 5697 5696 5695 5694 5692 5691 5690 5688 5687 5686 5685 5683 5682
5745 5743 5742 5742 5742 5741 5739 5736 5733 5725 5716 5715 5714 5713 5712 5710 5706 5703 5700 5698 5695 5694 5693 5691 5690 5689 5687 5686 5684 5683 5681 5680 5679 5678 5677 5675 5674 5672
5740 5739 5737 5737 5736 5736 5734 5732 5728 5724 5714 5710 5709 5707 5704 5701 5698 5695 5692 5690 5686 5684 5683 5682 5680 5679 5677 5676 5675 5673 5672 5670 5669 5668 5667 5665 5664 5662
5734 5732 5731 5732 5730 5729 5728 5725 5723 5720 5713 5705 5701 5699 5696 5693 5690 5688 5685 5682 5678 5675 5673 5671 5670 5668 5666 5665 5663 5662 5661 5659 5658 5657 5655 5654 5653 5651
5729 5726 5725 5724 5723 5722 5721 5719 5717 5715 5710 5702 5695 5692 5688 5686 5683 5680 5677 5673 5670 5666 5663 5661 5659 5657 5655 5654 5652 5651 5649 5648 5646 5645 5643 5641 5640 5639
5723 5720 5718 5717 5715 5715 5713 5711 5709 5706 5701 5696 5689 5685 5680 5678 5675 5670 5666 5663 5661 5658 5654 5651 5648 5646 5644 5642 5640 5639 5637 5635 5633 5632 5630 5628 5627 5625
5717 5714 5712 5710 5708 5707 5706 5702 5701 5697 5693 5687 5682 5677 5672 5668 5665 5662 5657 5654 5651 5649 5646 5642 5638 5635 5632 5630 5628 5626 5625 5622 5620 5618 5617 5615 5613 5611
5711 5709 5706 5703 5701 5699 5696 5695 5693 5689 5685 5680 5675 5670 5665 5661 5658 5654 5650 5646 5642 5640 5637 5633 5630 5626 5622 5619 5616 5614 5612 5610 5608 5606 5604 5602 5599 5597
5704 5702 5700 5696 5693 5691 5689 5687 5684 5681 5679 5674 5667 5663 5658 5655 5651 5647 5643 5639 5635 5632 5630 5624 5621 5617 5613 5609 5606 5603 5600 5598 5595 5593 5591 5589 5587 5585
5696 5694 5690 5687 5685 5683 5682 5678 5675 5671 5669 5666 5661 5657 5652 5648 5644 5641 5637 5632 5628 5625 5622 5615 5612 5608 5604 5599 5596 5592 5589 5587 5584 5581 5579 5578 5576 5574
5689 5684 5682 5679 5676 5675 5673 5669 5665 5661 5659 5656 5652 5648 5644 5640 5636 5632 5628 5623 5618 5615 5613 5608 5604 5600 5595 5590 5586 5582 5579 5576 5573 5570 5568 5567 5565 5563
5681 5677 5673 5670 5668 5666 5664 5660 5656 5653 5651 5648 5644 5640 5636 5632 5628 5624 5620 5616 5611 5606 5604 5600 5596 5593 5586 5582 5577 5573 5569 5566 5563 5560 5558 5556 5554 5551
5675 5669 5664 5661 5659 5657 5655 5651 5647 5645 5644 5641 5637 5632 5628 5624 5620 5616 5613 5609 5604 5598 5596 5593 5588 5584 5580 5574 5570 5566 5562 5559 5555 5552 5549 5547 5544 5541
5667 5662 5657 5653 5651 5649 5646 5643 5642 5640 5637 5633 5628 5623 5619 5615 5612 5609 5605 5601 5597 5593 5589 5585 5581 5576 5572 5566 5562 5559 5556 5553 5549 5546 5542 5539 5536 5533
5658 5654 5650 5646 5643 5641 5638 5636 5633 5631 5628 5624 5620 5616 5613 5609 5606 5601 5597 5593 5590 5586 5582 5578 5574 5570 5565 5560 5556 5552 5548 5546 5543 5540 5536 5533 5529 5526
5650 5646 5643 5640 5636 5633 5631 5629 5626 5623 5620 5617 5613 5609 5606 5602 5598 5595 5590 5585 5581 5577 5574 5570 5566 5562 5557 5554 5549 5545 5542 5538 5536 5533 5529 5526 5523 5520
5643 5641 5637 5634 5631 5628 5625 5622 5619 5616 5612 5609 5606 5602 5598 5595 5591 5588 5583 5579 5574 5569 5565 5562 5559 5555 5551 5547 5542 5538 5535 5532 5529 5526 5523 5519 5517 5514
5637 5634 5631 5628 5625 5621 5618 5614 5611 5607 5605 5602 5598 5595 5591 5587 5583 5580 5576 5571 5566 5563 5559 5555 5551 5547 5543 5540 5536 5532 5528 5525 5523 5520 5517 5513 5510 5508
5630 5628 5625 5621 5618 5615 5612 5608 5604 5601 5598 5594 5591 5587 5583 5580 5576 5571 5567 5563 5559 5555 5552 5549 5544 5539 5533 5529 5528 5525 5522 5519 5517 5514 5511 5508 5505 5502
5623 5621 5618 5615 5612 5609 5606 5602 5598 5594 5590 5586 5583 5579 5576 5572 5568 5564 5560 5556 5552 5549 5545 5542 5538 5533 5528 5523 5521 5520 5518 5515 5512 5508 5506 5504 5500 5497
5618 5615 5612 5609 5606 5602 5599 5595 5591 5587 5583 5579 5575 5572 5568 5564 5560 5557 5553 5549 5546 5542 5538 5535 5532 5529 5526 5521 5517 5515 5514 5511 5508 5504 5501 5498 5495 5492
5613 5610 5606 5603 5600 5596 5592 5588 5584 5580 5576 5573 5569 5565 5561 5558 5554 5550 5547 5543 5539 5536 5532 5530 5527 5524 5520 5516 5512 5511 5509 5506 5503 5500 5497 5494 5490 5487
5608 5605 5601 5597 5594 5589 5585 5581 5577 5573 5569 5565 5562 5558 5555 5551 5548 5544 5540 5537 5533 5530 5526 5523 5520 5517 5514 5511 5508 5506 5504 5501 5498 5495 5493 5490 5487 5484